Simultaneous Nadir Overpasses (SNOs) Predictions

Prediction of SNOs between GOES-17 and METOP-B Satellite Orbit:

Table of predicted SNOs for the next 14.0 days since TLE Epoch: 4/25/2025
Index Date Time (GOES-17) GOES-17 Lat,Lon METOP-B Lat,Lon Distance(km) Time Diff (sec)
1 04/27/2025 04:15:54 -0.01,-104.35 -0.58,-107.03 304.78 80
2 04/28/2025 03:57:55 -0.01,-104.35 0.49,-102.04 262.92 80
3 04/29/2025 16:16:47 0.01,-104.40 0.52,-106.62 253.87 80
4 04/30/2025 15:53:29 0.01,-104.40 -0.62,-101.65 313.52 80
5 05/02/2025 04:15:10 -0.01,-104.34 -0.41,-106.27 219.33 80
6 05/03/2025 03:51:51 -0.00,-104.34 0.68,-101.28 348.27 80
7 05/04/2025 16:13:23 0.01,-104.39 0.31,-105.87 167.95 80
8 05/05/2025 15:50:03 0.01,-104.40 -0.78,-100.88 400.06 80
9 05/07/2025 04:11:44 -0.01,-104.35 -0.29,-105.50 131.63 80
10 05/08/2025 03:48:25 -0.01,-104.35 0.86,-100.52 436.70 80
11 05/09/2025 16:09:57 0.02,-104.41 0.17,-105.10 78.72 80
